EST,Max TemperatureF,Mean TemperatureF,Min TemperatureF,Max Dew PointF,MeanDew PointF,Min DewpointF,Max Humidity, Mean Humidity, Min Humidity, Max Sea Level PressureIn, Mean Sea Level PressureIn, Min Sea Level PressureIn, Max VisibilityMiles, Mean VisibilityMiles, Min VisibilityMiles, Max Wind SpeedMPH, Mean Wind SpeedMPH, Max Gust SpeedMPH,PrecipitationIn, CloudCover, Events, WindDirDegrees
2012-12-1,,,,,,,,,,,,,,,,,,,,,,
2012-12-2,,,,,,,,,,,,,,,,,,,,,,
2012-12-3,,,,,,,,,,,,,,,,,,,,,,
2012-12-4,,,,,,,,,,,,,,,,,,,,,,
2012-12-5,,,,,,,,,,,,,,,,,,,,,,
2012-12-6,,,,,,,,,,,,,,,,,,,,,,
2012-12-7,,,,,,,,,,,,,,,,,,,,,,
2012-12-8,,,,,,,,,,,,,,,,,,,,,,
2012-12-9,,,,,,,,,,,,,,,,,,,,,,
2012-12-10,,,,,,,,,,,,,,,,,,,,,,
2012-12-11,46,40,33,30,26,24,75,58,47,30.22,30.13,30.00,10,10,10,8,4,,0.00,5,,307
2012-12-12,39,36,32,26,25,23,79,67,53,30.45,30.37,30.23,10,10,8,5,1,,0.00,0,,264
2012-12-13,48,38,28,24,22,19,73,56,32,30.47,30.41,30.34,10,10,7,7,0,,0.00,0,,45
2012-12-14,53,42,30,24,22,20,69,48,27,30.32,30.27,30.21,10,10,10,9,2,,0.00,0,,229
2012-12-15,51,44,36,32,27,23,62,54,42,30.30,30.22,30.12,10,10,10,4,0,,0.00,2,,180
2012-12-16,48,46,43,40,38,34,77,74,68,30.06,29.93,29.85,10,7,4,0,0,,0.00,8,,-1
2012-12-17,50,46,42,46,43,39,93,85,76,29.85,29.74,29.53,5,3,0,4,0,,0.28,7,Fog-Rain,45
2012-12-18,53,47,41,46,37,27,93,68,52,29.78,29.60,29.50,10,8,0,14,4,32,0.01,4,Fog-Rain,250
2012-12-19,54,46,37,34,31,27,76,62,47,30.18,29.96,29.78,10,10,10,10,5,22,0.00,5,,310
2012-12-20,43,38,34,40,32,29,93,82,60,30.19,29.95,29.46,10,7,1,7,1,,0.67,4,Rain,33
2012-12-21,48,42,35,46,29,21,93,68,55,29.49,29.37,29.27,10,8,2,15,7,39,0.21,7,Rain,263
2012-12-22,37,34,30,21,19,18,61,54,48,29.99,29.80,29.50,10,10,10,21,12,37,0.00,5,,289
2012-12-23,46,36,25,23,18,13,75,54,29,30.05,29.98,29.88,10,10,10,13,4,22,0.00,0,,226
2012-12-24,35,31,27,30,26,21,93,83,59,30.08,29.96,29.87,10,4,0,5,1,,0.16,5,Fog-Snow,38
2012-12-25,42,37,32,32,30,24,93,79,65,30.24,30.07,29.87,10,6,0,9,1,,0.00,6,Fog,18
2012-12-26,36,32,28,34,26,19,93,82,69,30.26,29.83,29.48,10,4,0,13,7,25,1.17,8,Fog-Rain-Snow,46
2012-12-27,35,34,33,32,26,21,89,72,60,30.00,29.71,29.44,10,9,2,13,7,25,0.06,8,Snow,300
2012-12-28,35,31,27,25,23,22,85,69,59,30.14,30.07,29.99,10,9,6,8,3,17,0.00,2,,267
2012-12-29,35,32,28,31,27,23,89,82,64,30.00,29.71,29.54,10,4,0,8,1,17,0.12,8,Fog-Snow,44
2012-12-30,35,32,26,23,19,16,66,57,48,30.30,30.12,29.82,10,10,9,15,6,26,0.00,6,,292
2012-12-31,42,34,26,26,19,14,66,53,35,30.29,30.13,29.96,10,10,10,13,6,23,0.00,3,,227